Tracking 24122 objects as of 9-Dec-2021
HD Live streaming from Space Station
objects crossing your sky now

OPS 4682 DEB

Track OPS 4682 DEB now!
10-day predictions


NORAD ID: 38412
Int'l Code: 1965-027DR
Perigee: 1,274.4 km
Apogee: 1,312.6 km
Inclination: 90.3 °
Period: 111.3 minutes
Semi major axis: 7664 km
RCS: 0.0074 m2 (small)
Launch date: April 3, 1965
Source: United States (US)
Launch site: AIR FORCE WESTERN TEST RANGE (AFWTR)

Note: This is SATELLITE DEBRIS
aabbcc
Your satellite tracking list
Your tracking list is empty




NASA's NSSDC Master Catalog

Two Line Element Set (TLE):
1 38412U 65027DR  21341.94249588  .00000177  00000-0  61738-3 0  9991
2 38412  90.2665 326.1218 0024905 253.7282 106.1097 12.93827977416921
Source of the keplerian elements: AFSPC